Regional Weather Roundup
Issued by NWS

Home | Current Version | Previous Version | Text Only | Print | Product List | Glossary Off
Versions: 1 2 3 4 5 6 7 8 9 10 11 12 13 14 15 16 17 18 19 20 21 22 23 24 25 26 27 28 29 30 31 32 33 34 35 36 37 38 39 40 41 42 43 44 45 46 47 48 49 50

691
ASUS45 KCYS 281810
RWRWY

WYOMING REGIONAL WEATHER ROUNDUP
NATIONAL WEATHER SERVICE CHEYENNE WY
1200 PM MDT FRI APR 28 2017

NOTE:  "FAIR" INDICATES FEW OR NO CLOUDS BELOW 12,000 FEET
WITH NO SIGNIFICANT WEATHER AND/OR OBSTRUCTIONS TO VISIBILITY.

WYZ001-281900-
YELLOWSTONE NATIONAL PARK

CITY           SKY/WX    TMP DP  RH WIND       PRES   REMARKS
LK YELLOWSTONE   N/A     33  21  61 NW9G24    29.88R WCI  25
6HR MIN TEMP:  22; 6HR MAX TEMP:  34;

W YELLOWSTONE  NOT AVBL

$$
WYZ002>013-054>058-071-098>099-281900-
NORTHERN WYOMING

CITY           SKY/WX    TMP DP  RH WIND       PRES   REMARKS
JACKSON        PTSUNNY   36  25  64 N16       29.83R WCI  26
CODY           PTSUNNY   37  32  82 N21G29    29.92R WCI  26
GREYBULL       CLOUDY    46  23  40 NW10      29.87R
6HR MIN TEMP:  39; 6HR MAX TEMP:  46;

WORLAND        CLOUDY    43  30  60 VRB3G23   29.86R
6HR MIN TEMP:  38; 6HR MAX TEMP:  45;

SHERIDAN       CLOUDY    38  32  79 NW10      29.98R WCI  31
6HR MIN TEMP:  34; 6HR MAX TEMP:  38; 6HR PCP:  0.05;

BUFFALO        SNOW      33  30  88 N12       29.96R VSB 1/4 WCI  24
6HR MIN TEMP:  32; 6HR MAX TEMP:  34; 6HR PCP:  0.13;

GILLETTE       SNOW      34  33  96 N12       29.94R WCI  25
6HR MIN TEMP:  31; 6HR MAX TEMP:  34; 6HR PCP:  0.31;

HULETT         CLOUDY    37  30  75 E13       29.96R WCI  29
NEWCASTLE      MOCLDY    37  27  65 E6        29.92R WCI  33

$$
WYZ014>020-022>026-101>103-281900-
CENTRAL WYOMING

CITY           SKY/WX    TMP DP  RH WIND       PRES   REMARKS
BIG PINEY      PTSUNNY   41  19  41 N18       29.76R
6HR MIN TEMP:  30; 6HR MAX TEMP:  42;

PINEDALE       CLOUDY    36  25  64 NW10G17   29.77R WCI  28
DUBOIS         FLURRIES  34  27  75 E7        29.79R WCI  28
LANDER         LGT SNOW  31  31 100 N12G17    29.84R VSB 3/4 WCI  22
6HR MIN TEMP:  31; 6HR MAX TEMP:  32; 6HR PCP:  0.39;

RIVERTON       LGT SNOW  31  30  96 NE16      29.84R VSB 1   WCI  20
6HR MIN TEMP:  31; 6HR MAX TEMP:  32; 6HR PCP:  0.27;

CASPER         LGT SNOW  32  30  92 E22       29.81R VSB 3/4 WCI  19
6HR MIN TEMP:  31; 6HR MAX TEMP:  32; 6HR PCP:  0.16;

DOUGLAS        SNOW      31  29  92 E21       29.85R VSB 1/4 WCI  18
6HR MIN TEMP:  30; 6HR MAX TEMP:  32; 6HR PCP:  0.11;


$$
WYZ021-027>030-104>119-281900-
SOUTHERN WYOMING

CITY           SKY/WX    TMP DP  RH WIND       PRES   REMARKS
EVANSTON       LGT SNOW  29  25  85 W9        29.82R FOG     WCI  20
6HR MIN TEMP:  19; 6HR MAX TEMP:  29;

KEMMERER         N/A     32  27  80 NW15G22   29.79R WCI  22
ROCK SPRINGS   LGT SNOW  31  25  78 W15       29.78R VSB 3/4 WCI  20
6HR MIN TEMP:  26; 6HR MAX TEMP:  31; 6HR PCP: TRACE;

DIXON          LGT SNOW  31  28  88 W6        29.79S WCI  26
RAWLINS        LGT SNOW  31  26  82 N13       29.75R WCI  21
6HR MIN TEMP:  27; 6HR MAX TEMP:  31; 6HR PCP:  0.02;

SARATOGA       CLOUDY    34  21  60 NW6       29.74R WCI  29
LARAMIE        CLOUDY    37  21  52 VRB5      29.69R WCI  33
6HR MIN TEMP:  24; 6HR MAX TEMP:  37; 6HR PCP: TRACE;

CHEYENNE       FAIR      40  28  62 N21G29    29.70R WCI  30
6HR MIN TEMP:  29; 6HR MAX TEMP:  41;

TORRINGTON     LGT SNOW  33  31  92 E24G31    29.81R VSB 3/4 WCI  20
6HR MIN TEMP:  32; 6HR MAX TEMP:  33; 6HR PCP:  0.19;

PINE BLUFFS    CLOUDY    37  32  81 NE12G17   29.74R WCI  30

$$




USA.gov is the U.S. government's official web portal to all federal, state and local government web resources and services.